Weather History for Buffalo, WY

Change the Weather History Date:

Monday, March 11, 2013

  Actual Average Record
Temperature  
Mean Temperature 30 °F 33 °F  
Max Temperature 41 °F 45 °F 67 °F (2005)
Min Temperature 19 °F 22 °F -8 °F (2009)
Degree Days  
Heating Degree Days 35 32  
Month to date heating degree days 345 367  
Since 1 July heating degree days 5294 5607  
Cooling Degree Days 0 0  
Month to date cooling degree days 0 0  
Year to date cooling degree days 0 0  
Moisture  
Dew Point 24 °F    
Average Humidity 66    
Maximum Humidity 92    
Minimum Humidity 40    
Precipitation  
Precipitation 0.03 in 0.02 in 0.30 in (1988)
Month to date precipitation 0.03 0.24  
Year to date precipitation 0.64 1.01  
Sea Level Pressure  
Sea Level Pressure 30.06 in    
Wind  
Wind Speed 17 mph (NNW)    
Max Wind Speed 37 mph    
Max Gust Speed 45 mph    
Visibility 4 miles    
Events Fog , Snow    
T = Trace of Precipitation, MM = Missing Value Source: NWS Daily Summary

Daily Weather History Graph

Daily Weather History Graph

Search for Another Location

Airport:

Trip Planner

Search our weather history database for the weather conditions in past years. The results will help you decide how hot, cold, wet, or windy it might be!

Date:

Astronomy

Mar. 11, 2013 Rise Set
Actual Time 7:25 AM MDT 7:08 PM MDT
Civil Twilight 6:57 AM MDT 7:37 PM MDT
Nautical Twilight 6:23 AM MDT 8:11 PM MDT
Astronomical Twilight 5:49 AM MDT 8:45 PM MDT
Moon 7:00 AM MDT (3/11) 7:26 PM MDT (3/11)
Length of Visible Light 12h 40m
Length of Day
11h 42m
Waning Crescent, 0% of the Moon is Illuminated
Mar 11
Waning Crescent
Mar 11
New
Mar 19
First Quarter
Mar 27
Full
Apr 2
Last Quarter

Hourly Weather History & Observations

Time (MDT) Temp. Windchill Dew Point Humidity Pressure Visibility Wind Dir Wind Speed Gust Speed Precip Events Conditions
12:53 AM 37.0 °F 34.5 °F 19.0 °F 48% 29.96 in 10.0 mi South 3.5 mph - N/A   Overcast
1:53 AM 39.9 °F 35.8 °F 17.1 °F 40% 29.96 in 10.0 mi Variable 5.8 mph - N/A   Overcast
2:53 AM 37.9 °F 29.2 °F 21.0 °F 51% 29.97 in 10.0 mi NNW 15.0 mph 25.3 mph N/A   Overcast
3:53 AM 34.0 °F 24.6 °F 27.0 °F 75% 29.96 in 10.0 mi NW 13.8 mph 26.5 mph N/A   Overcast
4:53 AM 30.9 °F 27.5 °F 26.1 °F 82% 29.98 in 10.0 mi Variable 3.5 mph - N/A   Clear
5:18 AM 33.8 °F 30.8 °F 26.6 °F 75% 29.95 in 10.0 mi Variable 3.5 mph - N/A   Mostly Cloudy
5:42 AM 32.0 °F 23.0 °F 26.6 °F 80% 29.95 in 10.0 mi NNW 11.5 mph 18.4 mph N/A   Overcast
5:53 AM 33.1 °F 25.5 °F 28.0 °F 82% 29.98 in 10.0 mi North 9.2 mph - N/A   Overcast
6:11 AM 32.0 °F 24.2 °F 28.4 °F 87% 29.96 in 9.0 mi NNW 9.2 mph 20.7 mph N/A   Overcast
6:33 AM 32.0 °F 19.8 °F 30.2 °F 93% 29.96 in 2.0 mi NNW 20.7 mph 27.6 mph 0.00 in Snow Light Snow
6:42 AM 33.8 °F 22.2 °F 30.2 °F 87% 29.97 in 1.8 mi NNW 20.7 mph 27.6 mph 0.00 in Snow Light Snow
6:53 AM 33.1 °F 21.2 °F 30.0 °F 89% 30.01 in 1.0 mi NNW 20.7 mph 28.8 mph 0.00 in Snow Light Snow
7:00 AM 32.0 °F 18.4 °F 28.4 °F 87% 29.98 in 0.8 mi NW 26.5 mph 39.1 mph 0.00 in Snow Light Snow
7:09 AM 32.0 °F 19.2 °F 28.4 °F 87% 29.98 in 1.0 mi NNW 23.0 mph 40.3 mph 0.00 in Snow Light Snow
7:13 AM 32.0 °F 18.6 °F 28.4 °F 87% 29.98 in 2.5 mi NNW 25.3 mph 39.1 mph 0.00 in Snow Light Snow
7:20 AM 32.0 °F 18.9 °F 28.4 °F 87% 29.98 in 5.0 mi NNW 24.2 mph 39.1 mph 0.00 in Snow Light Snow
7:31 AM 32.0 °F 18.6 °F 28.4 °F 87% 29.99 in 2.5 mi NNW 25.3 mph 39.1 mph 0.00 in Snow Light Snow
7:38 AM 32.0 °F 19.2 °F 28.4 °F 87% 29.99 in 1.0 mi NNW 23.0 mph 36.8 mph 0.00 in Snow Light Snow
7:44 AM 30.2 °F 17.8 °F 28.4 °F 93% 30.00 in 0.5 mi NNW 19.6 mph 35.7 mph 0.00 in Fog , Snow Snow
7:53 AM 30.9 °F 17.8 °F 28.9 °F 92% 30.05 in 0.2 mi NNW 23.0 mph 27.6 mph 0.00 in Fog , Snow Heavy Snow
8:26 AM 30.2 °F 17.1 °F 28.4 °F 93% 30.01 in 1.0 mi NNW 21.9 mph 32.2 mph 0.00 in Snow Light Snow
8:30 AM 30.2 °F 17.1 °F 26.6 °F 86% 30.01 in 2.0 mi NNW 21.9 mph 28.8 mph 0.00 in Snow Light Snow
8:38 AM 30.2 °F 19.3 °F 26.6 °F 86% 30.01 in 3.0 mi NNW 15.0 mph 27.6 mph 0.00 in Snow Light Snow
8:53 AM 30.9 °F 19.1 °F 26.1 °F 82% 30.06 in 10.0 mi NW 18.4 mph 28.8 mph 0.00 in   Overcast
9:53 AM 33.1 °F 21.5 °F 23.0 °F 66% 30.04 in 10.0 mi NW 19.6 mph 27.6 mph 0.01 in   Mostly Cloudy
10:53 AM 34.0 °F 24.2 °F 26.1 °F 73% 30.02 in 10.0 mi North 15.0 mph 23.0 mph N/A   Clear
11:53 AM 36.0 °F 24.7 °F 26.1 °F 67% 30.01 in 10.0 mi North 21.9 mph 35.7 mph N/A   Clear
12:53 PM 37.9 °F 25.9 °F 24.1 °F 57% 29.99 in 10.0 mi NNW 28.8 mph 42.6 mph N/A   Overcast
1:53 PM 37.9 °F 27.3 °F 23.0 °F 55% 29.97 in 10.0 mi NNW 21.9 mph 35.7 mph N/A   Overcast
2:53 PM 35.1 °F 23.0 °F 23.0 °F 61% 30.00 in 10.0 mi NNW 24.2 mph 39.1 mph 0.00 in   Mostly Cloudy
3:53 PM 34.0 °F 23.0 °F 21.0 °F 59% 30.04 in 10.0 mi NNW 18.4 mph 34.5 mph N/A   Overcast
4:53 PM 33.1 °F 20.3 °F 24.1 °F 70% 30.07 in 4.0 mi NNW 24.2 mph 31.1 mph 0.00 in Snow Light Snow
4:56 PM 32.0 °F 18.4 °F 24.8 °F 75% 30.01 in 1.5 mi NNW 26.5 mph 39.1 mph 0.00 in Snow Light Snow
4:59 PM 30.2 °F 16.5 °F 24.8 °F 80% 30.01 in 0.8 mi NNW 24.2 mph 39.1 mph 0.00 in Snow Light Snow
5:16 PM 30.2 °F 16.8 °F 26.6 °F 86% 30.03 in 0.8 mi NNW 23.0 mph 35.7 mph 0.00 in Snow Light Snow
5:53 PM 28.9 °F 16.5 °F 26.1 °F 89% 30.12 in 0.5 mi NNW 18.4 mph 26.5 mph 0.00 in Fog , Snow Snow
6:05 PM 28.4 °F 14.7 °F 26.6 °F 93% 30.05 in 0.5 mi North 21.9 mph 32.2 mph 0.00 in Fog , Snow Snow
6:39 PM 26.6 °F 12.7 °F 24.8 °F 93% 30.07 in 0.2 mi North 20.7 mph - 0.00 in Fog , Snow Heavy Snow
6:53 PM 27.0 °F 14.7 °F 24.1 °F 89% 30.16 in 0.2 mi North 16.1 mph - 0.01 in Fog , Snow Heavy Snow
7:18 PM 26.6 °F 12.7 °F 23.0 °F 86% 30.09 in 0.8 mi North 20.7 mph 33.4 mph 0.01 in Snow Light Snow
7:23 PM 26.6 °F 12.0 °F 23.0 °F 86% 30.09 in 1.0 mi North 23.0 mph 34.5 mph 0.01 in Snow Light Snow
7:32 PM 26.6 °F 12.7 °F 23.0 °F 86% 30.10 in 1.0 mi North 20.7 mph 36.8 mph 0.01 in Snow Light Snow
7:53 PM 26.1 °F 12.3 °F 23.0 °F 88% 30.21 in 1.0 mi NNW 19.6 mph 25.3 mph 0.01 in Snow Light Snow
8:02 PM 26.6 °F 11.7 °F 21.2 °F 80% 30.12 in 1.2 mi North 24.2 mph 35.7 mph 0.00 in Snow Light Snow
8:08 PM 26.6 °F 12.0 °F 21.2 °F 80% 30.13 in 0.8 mi NNW 23.0 mph 35.7 mph 0.00 in Snow Light Snow
8:35 PM 24.8 °F 10.0 °F 21.2 °F 86% 30.14 in 1.0 mi NNW 21.9 mph 26.5 mph 0.00 in Snow Light Snow
8:42 PM 24.8 °F 10.3 °F 21.2 °F 86% 30.14 in 1.8 mi NNW 20.7 mph 35.7 mph 0.00 in Snow Light Snow
8:53 PM 25.0 °F 10.2 °F 21.9 °F 88% 30.24 in 1.0 mi NNW 21.9 mph 35.7 mph 0.00 in Snow Light Snow
9:12 PM 24.8 °F 10.0 °F 21.2 °F 86% 30.15 in 1.5 mi NNW 21.9 mph 34.5 mph 0.00 in Snow Light Snow
9:20 PM 24.8 °F 9.3 °F 19.4 °F 80% 30.16 in 0.8 mi North 24.2 mph 35.7 mph 0.00 in Snow Light Snow
9:30 PM 24.8 °F 11.1 °F 21.2 °F 86% 30.16 in 0.5 mi North 18.4 mph 28.8 mph 0.00 in Fog , Snow Snow
9:42 PM 24.8 °F 11.1 °F 21.2 °F 86% 30.17 in 1.0 mi NNW 18.4 mph 25.3 mph 0.00 in Snow Light Snow
9:53 PM 24.1 °F 10.1 °F 21.0 °F 88% 30.26 in 1.0 mi NNW 18.4 mph 29.9 mph 0.00 in Snow Light Snow
10:16 PM 24.8 °F 10.3 °F 19.4 °F 80% 30.18 in 1.2 mi NNW 20.7 mph 27.6 mph 0.00 in Snow Light Snow
10:53 PM 23.0 °F 8.3 °F 19.9 °F 88% 30.28 in 3.0 mi NNW 19.6 mph 26.5 mph 0.00 in Snow Light Snow
11:05 PM 23.0 °F 9.6 °F 17.6 °F 80% 30.19 in 7.0 mi NNW 16.1 mph 26.5 mph 0.00 in Snow Light Snow
11:53 PM 23.0 °F 11.1 °F 14.0 °F 68% 30.27 in 10.0 mi NNW 12.7 mph 24.2 mph 0.00 in   Overcast